Orbital Elements at Epoch 2459000.5 (2020-May-31.0) TDB
Reference: JPL 11 (heliocentric ecliptic J2000)
Element | Value | Uncertainty (1-sigma) | Units |
e | .08114991983723838 | 5.7e-08 | |
a | 2.692445265847991 | 2.3885e-08 | au |
q | 2.473953548358275 | 1.5428e-07 | au |
i | 2.412812142091712 | 5.4e-06 | deg |
node | 278.8870353361961 | 0.00018617 | deg |
peri | 138.6423254017643 | 0.00019235 | deg |
M | 229.6023749833618 | 5.1806e-05 | deg |
tp | 2459585.001907309220 (2022-Jan-05.50190731) | 0.00023673 | TDB |
period | 1613.68496247129 4.42 | 2.1473e-05 5.879e-08 | d yr |
n | .2230918725602273 | 2.9686e-09 | deg/d |
Q | 2.910936983337708 | 2.5823e-08 | au |
|
| | Orbit Determination Parameters
Additional Information
|